Content
SEND FEEDBACK

Daily
Averages
Monthly
Summary
United States of America

DUNKIRK, NEW YORK


Home > North America > United States > New York
Elevation: 692 feet     Latitude: 42 29N     Longitude: 079 16W

WEATHER
 
SELECT A DAY
Number of Records: 202,949;   Date Range: 12/11/96 - 8/30/14
 
SHARE

PRINT THIS DATA

[ ← Previous Day ]
WEATHER ALMANAC - JANUARY 31, 2013
[ Next Day → ]
[ °C ]   °F
Weather ElementAverageHighLow
Temperature27.7 °F37.9 °F (12:53 am)21.2 °F (9:26 pm)
Dewpoint19.2 °F35.6 °F (12:48 am)12.2 °F (6:15 pm)
Humidity71.3 %93 % (12:48 am)47 % (11:00 pm)
Barometer29.57 in29.78 in (11:53 pm)29.17 in (12:53 am)
Wind Speed22.6 mph36.8 mph (2:53 am)
Wind Gust57.5 mph (3:44 am)
Weather ElementAverage
Visibility3 mi
Wind DirectionWSW (258.7 °)

Weather ElementTotal
Precipitation0.09 in
Heating Degree Days35.5 (Base 65)
Averaged from 94 records on January 31, 2013
WEATHER CONDITIONS BREAKOUT
WIND DIRECTION BREAKOUT
WEATHER BY HOUR - JANUARY 31, 2013
[ °C ]   °F
Local TimeTemperatureDewpointHumidityBarometerVisibilityWind DirectionWind SpeedGust SpeedPrecipitationEventsConditions
12:48 AM37.4 °F35.6 °F93 %29.18 in10.0 miWSW (240°)20.7 mph39.1 mph0.02 inRainLight Rain
12:53 AM37.9 °F35.1 °F89 %29.17 in10.0 miWSW (240°)19.6 mph39.1 mph0.02 inRainLight Rain
1:12 AM37.4 °F33.8 °F87 %29.19 in10.0 miSW (230°)21.9 mph34.5 mph0.00 inRainLight Rain
1:34 AM37.4 °F33.8 °F87 %29.19 in9.0 miSW (230°)31.1 mph46.0 mph0.00 inSnowLight Snow
1:53 AM36.0 °F33.1 °F89 %29.18 in5.0 miWSW (250°)24.2 mph35.7 mph0.00 inSnowLight Snow
2:07 AM35.6 °F32.0 °F87 %29.17 in4.0 miWSW (250°)21.9 mph42.6 mph0.01 inSnowLight Snow
2:49 AM35.6 °F32.0 °F87 %29.20 in9.0 miSW (230°)28.8 mph47.2 mph0.01 inSnowLight Snow
2:53 AM35.1 °F30.9 °F85 %29.21 in8.0 miWSW (240°)36.8 mph48.3 mph0.01 inSnowLight Snow
3:12 AM33.8 °F30.2 °F87 %29.21 in2.0 miWSW (240°)28.8 mph48.3 mph0.00 inSnowLight Snow
3:23 AM35.6 °F30.2 °F81 %29.21 in6.0 miWSW (240°)29.9 mph47.2 mph0.00 inSnowLight Snow
3:44 AM33.8 °F28.4 °F81 %29.22 in9.0 miWSW (240°)34.5 mph57.5 mph0.00 inSnowLight Snow
3:53 AM34.0 °F28.0 °F79 %29.24 in9.0 miWSW (240°)26.5 mph57.5 mph0.00 inSnowLight Snow
4:53 AM32.0 °F25.0 °F75 %29.29 in5.0 miWSW (250°)29.9 mph46.0 mph0.00 inSnowLight Snow
5:38 AM30.2 °F19.4 °F64 %29.31 in9.0 miWSW (250°)24.2 mph41.4 mph0.00 inSnowLight Snow
5:53 AM30.9 °F19.9 °F64 %29.33 in9.0 miWSW (250°)21.9 mph39.1 mph0.00 inSnowLight Snow
6:53 AM30.0 °F19.0 °F64 %29.37 in9.0 miWSW (250°)31.1 mph48.3 mph0.00 inSnowLight Snow
7:53 AM28.9 °F19.9 °F69 %29.42 in9.0 miWest (260°)24.2 mph44.9 mph0.00 inSnowLight Snow
8:53 AM28.9 °F19.0 °F67 %29.46 in3.0 miWest (260°)25.3 mph43.7 mph0.00 inSnowLight Snow
8:56 AM28.4 °F19.4 °F69 %29.45 in2.5 miWest (260°)32.2 mph44.9 mph0.00 inSnowLight Snow
9:14 AM28.4 °F17.6 °F64 %29.46 in6.0 miWest (260°)28.8 mph47.2 mph0.00 inSnowLight Snow
9:21 AM28.4 °F17.6 °F64 %29.46 in6.0 miWest (260°)29.9 mph47.2 mph0.00 inSnowLight Snow
9:53 AM28.0 °F16.0 °F61 %29.49 in9.0 miWest (260°)31.1 mph49.5 mph0.00 inSnowLight Snow
10:53 AM28.0 °F17.1 °F63 %29.52 in9.0 miWest (260°)26.5 mph43.7 mph0.00 inSnowLight Snow
11:09 AM26.6 °F19.4 °F74 %29.52 in1.8 miWest (260°)19.6 mph35.7 mph0.00 inSnowLight Snow
11:17 AM26.6 °F19.4 °F74 %29.52 in0.8 miWest (260°)25.3 mph44.9 mph0.00 inSnowLight Snow
11:51 AM24.8 °F21.2 °F86 %29.53 in0.5 miWSW (250°)25.3 mph41.4 mph0.00 inFog-SnowSnow
11:53 AM25.0 °F21.0 °F85 %29.55 in0.5 miWSW (250°)26.5 mph41.4 mph0.00 inFog-SnowSnow
12:00 PM26.6 °F21.2 °F80 %29.53 in1.0 miWest (270°)24.2 mph41.4 mph0.00 inSnowLight Snow
12:05 PM26.6 °F17.6 °F69 %29.53 in2.0 miWest (260°)17.3 mph34.5 mph0.00 inSnowLight Snow
12:12 PM26.6 °F19.4 °F74 %29.54 in0.8 miWest (260°)26.5 mph39.1 mph0.00 inSnowLight Snow
12:19 PM24.8 °F21.2 °F86 %29.54 in0.2 miWest (260°)24.2 mph39.1 mph0.00 inFog-SnowSnow
12:32 PM26.6 °F17.6 °F69 %29.54 in1.2 miWSW (250°)25.3 mph40.3 mph0.00 inSnowLight Snow
12:35 PM26.6 °F17.6 °F69 %29.54 in3.0 miWest (260°)25.3 mph39.1 mph0.00 inSnowLight Snow
12:53 PM26.1 °F17.1 °F69 %29.57 in9.0 miWest (260°)26.5 mph39.1 mph0.00 inSnowLight Snow
12:58 PM26.6 °F19.4 °F74 %29.55 in1.2 miWest (270°)20.7 mph41.4 mph0.00 inSnowLight Snow
1:02 PM26.6 °F19.4 °F74 %29.55 in1.0 miWest (260°)26.5 mph41.4 mph0.00 inSnowLight Snow
1:08 PM26.6 °F17.6 °F69 %29.55 in2.5 miWest (260°)21.9 mph39.1 mph0.00 inSnowLight Snow
1:15 PM26.6 °F15.8 °F64 %29.55 in9.0 miWest (270°)23.0 mph41.4 mph0.00 inSnowLight Snow
1:27 PM26.6 °F15.8 °F64 %29.56 in1.5 miWSW (250°)25.3 mph41.4 mph0.00 inSnowLight Snow
1:30 PM24.8 °F17.6 °F74 %29.56 in0.8 miWSW (250°)21.9 mph41.4 mph0.00 inSnowLight Snow
1:37 PM24.8 °F21.2 °F86 %29.56 in0.2 miWSW (250°)21.9 mph34.5 mph0.00 inFog-SnowHeavy Snow
1:45 PM24.8 °F21.2 °F86 %29.56 in0.2 miWest (260°)21.9 mph33.4 mph0.00 inFog-SnowSnow
1:53 PM24.1 °F21.0 °F88 %29.58 in0.2 miWest (270°)23.0 mph36.8 mph0.00 inFog-SnowSnow
2:34 PM24.8 °F19.4 °F80 %29.58 in0.2 miWSW (250°)24.2 mph40.3 mph0.00 inSnowHeavy Snow
2:43 PM24.8 °F19.4 °F80 %29.58 in1.0 miWSW (250°)23.0 mph38.0 mph0.00 inSnowLight Snow
2:53 PM25.0 °F21.0 °F85 %29.62 in0.5 miWest (260°)19.6 mph38.0 mph0.00 inFog-SnowLight Snow
3:00 PM24.8 °F21.2 °F86 %29.59 in0.2 miWest (270°)20.7 mph29.9 mph0.00 inFog-SnowLight Snow
3:11 PM24.8 °F21.2 °F86 %29.60 in0.2 miWest (260°)26.5 mph38.0 mph0.00 inFog-SnowSnow
3:18 PM24.8 °F19.4 °F80 %29.60 in0.2 miWest (260°)23.0 mph39.1 mph0.00 inSnowHeavy Snow
3:26 PM26.6 °F15.8 °F64 %29.60 in0.8 miWSW (250°)24.2 mph38.0 mph0.00 inSnowLight Snow
3:39 PM24.8 °F21.2 °F86 %29.61 in0.2 miWest (270°)18.4 mph34.5 mph0.01 inFog-SnowSnow
3:53 PM24.1 °F19.9 °F84 %29.65 in0.2 miWest (260°)26.5 mph40.3 mph0.01 inFog-SnowSnow
4:05 PM23.0 °F19.4 °F86 %29.62 in0.2 miWSW (250°)19.6 mph38.0 mph0.00 inFog-SnowLight Snow
4:21 PM24.8 °F17.6 °F74 %29.63 in0.5 miWSW (250°)24.2 mph43.7 mph0.00 inSnowSnow
4:42 PM23.0 °F19.4 °F86 %29.64 in0.2 miWSW (240°)24.2 mph41.4 mph0.00 inFog-SnowSnow
4:53 PM24.1 °F18.0 °F77 %29.67 in0.5 miWest (260°)25.3 mph43.7 mph0.00 inSnowSnow
5:42 PM24.8 °F14.0 °F64 %29.66 in1.0 miWest (260°)21.9 mph40.3 mph0.00 inSnowLight Snow
5:50 PM24.8 °F14.0 °F64 %29.67 in1.2 miWest (260°)26.5 mph41.4 mph0.00 inSnowLight Snow
5:53 PM25.0 °F15.1 °F66 %29.70 in1.0 miWSW (250°)24.2 mph41.4 mph0.00 inSnowLight Snow
6:02 PM26.6 °F15.8 °F64 %29.67 in2.0 miWSW (250°)21.9 mph34.5 mph0.00 inSnowLight Snow
6:15 PM26.6 °F12.2 °F55 %29.68 in1.5 miWSW (250°)19.6 mph38.0 mph0.00 inSnowLight Snow
6:20 PM26.6 °F12.2 °F55 %29.68 in3.0 miWest (260°)18.4 mph38.0 mph0.00 inSnowLight Snow
6:24 PM26.6 °F14.0 °F59 %29.68 in1.8 miWest (260°)23.0 mph35.7 mph0.00 inSnowLight Snow
6:40 PM28.4 °F12.2 °F51 %29.69 in2.0 miWSW (250°)21.9 mph36.8 mph0.00 inSnowLight Snow
6:47 PM24.8 °F17.6 °F74 %29.69 in1.2 miWest (270°)13.8 mph31.1 mph0.00 inSnowLight Snow
6:48 PM24.1 °F17.1 °F75 %29.72 in1.2 miWest (260°)15.0 mph31.1 mph0.00 inSnowLight Snow
6:54 PM24.8 °F17.6 °F74 %29.70 in0.8 miWest (260°)24.2 mph39.1 mph0.00 inSnowLight Snow
7:10 PM26.6 °F15.8 °F64 %29.70 in1.2 miWest (270°)23.0 mph39.1 mph0.00 inSnowLight Snow
7:20 PM28.4 °F14.0 °F55 %29.70 in2.0 miWest (260°)21.9 mph28.8 mph0.00 inSnowLight Snow
7:42 PM24.8 °F12.2 °F59 %29.70 in6.0 miWest (260°)23.0 mph38.0 mph0.00 inHaze
7:53 PM24.1 °F12.9 °F62 %29.73 in5.0 miWest (260°)17.3 mph34.5 mph0.00 inHaze
8:08 PM26.6 °F15.8 °F64 %29.71 in1.5 miWest (260°)21.9 mph38.0 mph0.00 inSnowLight Snow
8:13 PM23.0 °F15.8 °F74 %29.71 in1.0 miWest (270°)19.6 mph38.0 mph0.00 inSnowLight Snow
8:17 PM23.0 °F15.8 °F74 %29.71 in1.2 miWest (270°)17.3 mph34.5 mph0.00 inSnowLight Snow
8:25 PM28.4 °F14.0 °F55 %29.71 in3.0 miWest (270°)20.7 mph32.2 mph0.00 inSnowLight Snow
8:38 PM26.6 °F17.6 °F69 %29.71 in2.5 miWest (260°)17.3 mph27.6 mph0.00 inSnowLight Snow
8:53 PM23.0 °F12.9 °F65 %29.74 in4.0 miWest (280°)17.3 mph27.6 mph0.00 inSnowLight Snow
9:00 PM23.0 °F15.8 °F74 %29.72 in1.8 miWest (280°)19.6 mph36.8 mph0.00 inSnowLight Snow
9:26 PM21.2 °F17.6 °F86 %29.72 in0.5 miWest (280°)12.7 mph33.4 mph0.00 inFog-SnowSnow
9:38 PM23.0 °F17.6 °F80 %29.73 in1.0 miWest (270°)13.8 mph34.5 mph0.00 inSnowLight Snow
9:53 PM21.9 °F18.0 °F85 %29.76 in0.5 miWest (270°)17.3 mph28.8 mph0.00 inFog-SnowSnow
10:11 PM28.4 °F19.4 °F69 %29.74 in0.2 miWest (270°)11.5 mph23.0 mph0.00 inSnowHeavy Snow
10:23 PM28.4 °F15.8 °F59 %29.74 in1.5 miWest (280°)17.3 mph29.9 mph0.00 inSnowLight Snow
10:25 PM30.2 °F15.8 °F55 %29.74 in2.0 miWest (270°)18.4 mph29.9 mph0.00 inSnowLight Snow
10:31 PM30.2 °F15.8 °F55 %29.74 in1.8 miWest (270°)17.3 mph29.9 mph0.00 inSnowLight Snow
10:37 PM30.2 °F17.6 °F60 %29.74 in0.8 miWest (280°)20.7 mph34.5 mph0.00 inSnowLight Snow
10:44 PM28.4 °F15.8 °F59 %29.74 in1.0 miWest (280°)16.1 mph31.1 mph0.00 inSnowLight Snow
11:00 PM30.2 °F12.2 °F47 %29.74 in2.5 miWest (270°)21.9 mph28.8 mph0.00 inSnowLight Snow
11:02 PM30.2 °F12.2 °F47 %29.74 in3.0 miWest (270°)16.1 mph28.8 mph0.00 inHaze
11:06 PM30.2 °F14.0 °F51 %29.75 in2.5 miWest (270°)19.6 mph28.8 mph0.00 inSnowLight Snow
11:10 PM30.2 °F14.0 °F51 %29.75 in1.8 miWest (270°)16.1 mph31.1 mph0.00 inSnowLight Snow
11:35 PM30.2 °F15.8 °F55 %29.75 in0.8 miWest (260°)23.0 mph34.5 mph0.00 inSnowLight Snow
11:48 PM30.2 °F15.8 °F55 %29.75 in1.2 miWest (270°)16.1 mph31.1 mph0.00 inSnowLight Snow
11:53 PM30.0 °F14.0 °F51 %29.78 in2.0 miWest (270°)16.1 mph31.1 mph0.00 inSnowLight Snow
Hourly data recorded from KDKK, located miles away from Dunkirk, New York







STORIES FROM OUR PARTNERS